| time (UTC) | temp F | wind direction | speed MPH | gust MPH | rain 1hr in | rain 24hr in | rain mn in | humidity % | barometer mb |
| 20260507020502 | 45 | 203 | 3.0 | 0.0 | 0.00 | 0.00 | 0.39 | 94 | 1008.8 |
| 20260507020002 | 45 | 180 | 1.0 | 0.0 | 0.00 | 0.00 | 0.39 | 94 | 1008.8 |
| 20260507015501 | 45 | 180 | 2.0 | 0.0 | 0.00 | 0.00 | 0.39 | 93 | 1009.1 |
| 20260507014002 | 45 | 203 | 1.0 | 0.0 | 0.00 | 0.00 | 0.39 | 92 | 1009.1 |
| 20260507013502 | 45 | 203 | 3.0 | 0.0 | 0.00 | 0.00 | 0.39 | 91 | 1009.1 |
| 20260507012501 | 45 | 203 | 1.0 | 0.0 | 0.00 | 0.00 | 0.39 | 90 | 1009.1 |
| 20260507012002 | 45 | 180 | 1.0 | 0.0 | 0.00 | 0.00 | 0.39 | 90 | 1009.1 |
| 20260507010502 | 45 | 203 | 1.0 | 0.0 | 0.00 | 0.00 | 0.39 | 88 | 1008.8 |
| 20260507010002 | 45 | 203 | 2.0 | 0.0 | 0.00 | 0.00 | 0.39 | 89 | 1008.8 |
| 20260507004502 | 45 | 158 | 1.0 | 0.0 | 0.00 | 0.00 | 0.39 | 89 | 1008.5 |
| 20260507003002 | 45 | 203 | 2.0 | 0.0 | 0.00 | 0.00 | 0.39 | 89 | 1008.5 |
| 20260507002502 | 45 | 225 | 1.0 | 0.0 | 0.00 | 0.00 | 0.39 | 89 | 1008.5 |
| 20260507002001 | 45 | 203 | 2.0 | 0.0 | 0.00 | 0.00 | 0.39 | 89 | 1008.5 |
| 20260507001501 | 45 | 203 | 1.0 | 0.0 | 0.00 | 0.00 | 0.39 | 90 | 1008.5 |
| 20260507000502 | 46 | 203 | 1.0 | 0.0 | 0.00 | 0.00 | 0.39 | 91 | 1008.5 |
| 20260507000002 | 46 | 203 | 2.0 | 0.0 | 0.00 | 0.00 | 0.39 | 90 | 1008.5 |
| 20260506235501 | 46 | 203 | 1.0 | 0.0 | 0.00 | 0.00 | 0.39 | 90 | 1008.5 |
| 20260506235002 | 46 | 225 | 1.0 | 0.0 | 0.00 | 0.00 | 0.39 | 89 | 1008.5 |
| 20260506234502 | 46 | 203 | 0.0 | 0.0 | 0.00 | 0.00 | 0.39 | 89 | 1008.1 |
| 20260506234002 | 46 | 248 | 1.0 | 0.0 | 0.00 | 0.00 | 0.39 | 88 | 1008.1 |
| 20260506233502 | 47 | 203 | 1.0 | 0.0 | 0.00 | 0.00 | 0.39 | 87 | 1008.1 |
| 20260506232001 | 48 | 203 | 0.0 | 0.0 | 0.00 | 0.00 | 0.39 | 85 | 1007.8 |
| 20260506231501 | 48 | 225 | 1.0 | 0.0 | 0.00 | 0.00 | 0.39 | 85 | 1008.1 |
| 20260506231001 | 48 | 203 | 1.0 | 0.0 | 0.00 | 0.00 | 0.39 | 83 | 1007.8 |
| 20260506230502 | 48 | 270 | 1.0 | 0.0 | 0.00 | 0.00 | 0.39 | 83 | 1008.1 |
| 20260506230002 | 48 | 203 | 1.0 | 0.0 | 0.00 | 0.00 | 0.39 | 82 | 1008.1 |
| 20260506225002 | 48 | 180 | 1.0 | 0.0 | 0.00 | 0.00 | 0.39 | 82 | 1007.8 |
| 20260506224501 | 48 | 248 | 0.0 | 0.0 | 0.00 | 0.00 | 0.39 | 83 | 1008.1 |
| 20260506224001 | 49 | 225 | 0.0 | 0.0 | 0.00 | 0.00 | 0.39 | 82 | 1008.1 |
| 20260506223501 | 48 | 203 | 1.0 | 0.0 | 0.00 | 0.00 | 0.39 | 81 | 1008.1 |
| 20260506223001 | 49 | 203 | 0.0 | 0.0 | 0.00 | 0.00 | 0.39 | 79 | 1008.1 |
| 20260506222501 | 49 | 293 | 2.0 | 0.0 | 0.00 | 0.00 | 0.39 | 78 | 1008.1 |
| 20260506222002 | 49 | 248 | 2.0 | 0.0 | 0.00 | 0.00 | 0.39 | 78 | 1008.1 |
| 20260506221501 | 49 | 203 | 2.0 | 0.0 | 0.00 | 0.00 | 0.39 | 79 | 1008.1 |
| 20260506221001 | 50 | 158 | 0.0 | 0.0 | 0.00 | 0.00 | 0.39 | 78 | 1008.1 |
| 20260506220501 | 50 | 270 | 2.0 | 0.0 | 0.00 | 0.00 | 0.39 | 78 | 1008.1 |
| 20260506220002 | 50 | 225 | 2.0 | 0.0 | 0.00 | 0.00 | 0.39 | 79 | 1008.1 |
| 20260506215502 | 49 | 203 | 2.0 | 0.0 | 0.00 | 0.00 | 0.39 | 79 | 1008.1 |
| 20260506215001 | 49 | 180 | 0.0 | 0.0 | 0.00 | 0.00 | 0.39 | 79 | 1008.1 |
| 20260506214501 | 48 | 338 | 2.0 | 0.0 | 0.00 | 0.00 | 0.39 | 80 | 1008.1 |
| 20260506214002 | 48 | 270 | 2.0 | 0.0 | 0.00 | 0.00 | 0.39 | 80 | 1008.1 |
| 20260506213501 | 48 | 270 | 1.0 | 0.0 | 0.00 | 0.00 | 0.39 | 80 | 1008.1 |
| 20260506213002 | 48 | 270 | 2.0 | 0.0 | 0.00 | 0.00 | 0.39 | 81 | 1008.1 |
| 20260506212502 | 48 | 270 | 1.0 | 0.0 | 0.00 | 0.00 | 0.39 | 81 | 1008.1 |
| 20260506211502 | 48 | 270 | 2.0 | 0.0 | 0.00 | 0.00 | 0.39 | 81 | 1008.5 |
| 20260506211002 | 48 | 225 | 0.0 | 0.0 | 0.00 | 0.00 | 0.39 | 80 | 1008.5 |
| 20260506210501 | 49 | 270 | 1.0 | 0.0 | 0.00 | 0.00 | 0.39 | 80 | 1008.5 |
| 20260506210002 | 49 | 270 | 2.0 | 0.0 | 0.00 | 0.00 | 0.39 | 79 | 1008.5 |
| 20260506205501 | 49 | 315 | 2.0 | 0.0 | 0.00 | 0.00 | 0.39 | 78 | 1008.5 |
| 20260506204501 | 49 | 315 | 1.0 | 0.0 | 0.00 | 0.00 | 0.39 | 79 | 1008.5 |
| 20260506204001 | 49 | 270 | 1.0 | 0.0 | 0.00 | 0.00 | 0.39 | 79 | 1008.5 |
| 20260506203502 | 49 | 270 | 2.0 | 0.0 | 0.00 | 0.00 | 0.39 | 77 | 1008.5 |
| 20260506203002 | 49 | 270 | 2.0 | 0.0 | 0.00 | 0.00 | 0.39 | 79 | 1008.5 |
| 20260506201501 | 50 | 270 | 2.0 | 0.0 | 0.00 | 0.00 | 0.39 | 77 | 1008.5 |
| 20260506201002 | 49 | 338 | 2.0 | 0.0 | 0.00 | 0.00 | 0.39 | 78 | 1008.5 |
| 20260506200502 | 49 | 315 | 3.0 | 0.0 | 0.00 | 0.00 | 0.39 | 79 | 1008.5 |
| 20260506200002 | 48 | 270 | 3.0 | 0.0 | 0.00 | 0.00 | 0.39 | 84 | 1008.5 |
| 20260506195502 | 48 | 293 | 2.0 | 0.0 | 0.00 | 0.00 | 0.39 | 83 | 1008.5 |
| 20260506194502 | 48 | 270 | 3.0 | 0.0 | 0.00 | 0.00 | 0.39 | 85 | 1008.5 |
| 20260506193502 | 48 | 315 | 3.0 | 0.0 | 0.00 | 0.00 | 0.39 | 86 | 1008.8 |
| 20260506193002 | 48 | 293 | 4.0 | 0.0 | 0.00 | 0.00 | 0.39 | 85 | 1008.8 |
| 20260506192501 | 48 | 293 | 1.0 | 0.0 | 0.00 | 0.00 | 0.39 | 86 | 1008.5 |
| 20260506192001 | 49 | 293 | 4.0 | 0.0 | 0.00 | 0.00 | 0.39 | 83 | 1008.5 |
| 20260506191502 | 49 | 293 | 3.0 | 0.0 | 0.00 | 0.00 | 0.39 | 81 | 1008.5 |
| 20260506190502 | 50 | 270 | 2.0 | 0.0 | 0.00 | 0.00 | 0.39 | 81 | 1008.5 |
| 20260506190002 | 49 | 270 | 0.0 | 0.0 | 0.00 | 0.00 | 0.39 | 85 | 1008.5 |
| 20260506185502 | 49 | 248 | 0.0 | 0.0 | 0.00 | 0.00 | 0.39 | 85 | 1008.5 |
| 20260506185002 | 49 | 113 | 0.0 | 0.0 | 0.00 | 0.00 | 0.39 | 85 | 1008.5 |
| 20260506184002 | 50 | 45 | 0.0 | 0.0 | 0.00 | 0.00 | 0.39 | 79 | 1008.1 |
| 20260506183503 | 50 | 113 | 2.0 | 0.0 | 0.00 | 0.00 | 0.39 | 85 | 1008.5 |
| 20260506183001 | 49 | 113 | 2.0 | 0.0 | 0.00 | 0.00 | 0.39 | 89 | 1008.5 |
| 20260506182502 | 49 | 68 | 0.0 | 0.0 | 0.00 | 0.00 | 0.39 | 87 | 1008.5 |
| 20260506182001 | 49 | 23 | 2.0 | 0.0 | 0.00 | 0.00 | 0.39 | 89 | 1008.8 |
| 20260506181501 | 48 | 270 | 0.0 | 0.0 | 0.00 | 0.00 | 0.39 | 89 | 1008.8 |
| 20260506180002 | 46 | 68 | 1.0 | 0.0 | 0.00 | 0.00 | 0.39 | 93 | 1009.1 |
| 20260506175501 | 46 | 203 | 0.0 | 0.0 | 0.00 | 0.00 | 0.39 | 94 | 1009.1 |
| 20260506175001 | 46 | 225 | 1.0 | 0.0 | 0.01 | 0.00 | 0.39 | 94 | 1009.1 |
| 20260506174501 | 46 | 293 | 2.0 | 0.0 | 0.01 | 0.00 | 0.39 | 94 | 1009.1 |
| 20260506173501 | 45 | 248 | 0.0 | 0.0 | 0.01 | 0.00 | 0.39 | 95 | 1009.1 |
| 20260506173002 | 45 | 315 | 2.0 | 0.0 | 0.01 | 0.00 | 0.39 | 95 | 1009.5 |
| 20260506172502 | 45 | 270 | 2.0 | 0.0 | 0.01 | 0.00 | 0.39 | 94 | 1009.5 |
| 20260506172002 | 45 | 270 | 1.0 | 0.0 | 0.02 | 0.00 | 0.39 | 96 | 1009.5 |
| 20260506170502 | 45 | 45 | 2.0 | 0.0 | 0.03 | 0.00 | 0.39 | 93 | 1009.5 |
| 20260506170002 | 45 | 338 | 1.0 | 0.0 | 0.03 | 0.00 | 0.39 | 92 | 1009.5 |
| 20260506165501 | 45 | 315 | 0.0 | 0.0 | 0.02 | 0.00 | 0.38 | 93 | 1009.5 |
| 20260506165007 | 45 | 293 | 2.0 | 0.0 | 0.02 | 0.00 | 0.38 | 94 | 1009.8 |
| 20260506164001 | 44 | 23 | 2.0 | 0.0 | 0.04 | 0.00 | 0.38 | 96 | 1009.8 |
| 20260506163501 | 44 | 90 | 1.0 | 0.0 | 0.04 | 0.00 | 0.38 | 97 | 1009.8 |
| 20260506163002 | 44 | 338 | 3.0 | 0.0 | 0.06 | 0.00 | 0.38 | 98 | 1009.8 |
| 20260506162002 | 43 | 315 | 2.0 | 0.0 | 0.06 | 0.00 | 0.37 | 99 | 1009.8 |
| 20260506161502 | 43 | 315 | 2.0 | 0.0 | 0.06 | 0.00 | 0.37 | 99 | 1009.8 |
| 20260506161002 | 43 | 293 | 2.0 | 0.0 | 0.06 | 0.00 | 0.36 | 99 | 1010.2 |
| 20260506160502 | 43 | 270 | 3.0 | 0.0 | 0.06 | 0.00 | 0.36 | 99 | 1010.2 |
| 20260506160002 | 44 | 315 | 2.0 | 0.0 | 0.07 | 0.00 | 0.36 | 99 | 1010.2 |
| 20260506155502 | 44 | 293 | 2.0 | 0.0 | 0.07 | 0.00 | 0.36 | 99 | 1010.2 |
| 20260506155002 | 44 | 315 | 1.0 | 0.0 | 0.07 | 0.00 | 0.36 | 99 | 1010.2 |
| 20260506154502 | 44 | 338 | 2.0 | 0.0 | 0.06 | 0.00 | 0.35 | 99 | 1010.2 |
| 20260506154002 | 43 | 0 | 2.0 | 0.0 | 0.06 | 0.00 | 0.34 | 99 | 1010.2 |
| 20260506153502 | 44 | 315 | 2.0 | 0.0 | 0.04 | 0.00 | 0.32 | 99 | 1010.2 |
| 20260506153001 | 44 | 270 | 3.0 | 0.0 | 0.05 | 0.00 | 0.32 | 99 | 1010.5 |
| 20260506152501 | 44 | 270 | 2.0 | 0.0 | 0.04 | 0.00 | 0.31 | 99 | 1010.2 |
| 20260506152002 | 44 | 270 | 2.0 | 0.0 | 0.05 | 0.00 | 0.31 | 99 | 1010.2 |
| 20260506151502 | 44 | 270 | 1.0 | 0.0 | 0.04 | 0.00 | 0.30 | 99 | 1010.2 |
| 20260506151001 | 44 | 270 | 2.0 | 0.0 | 0.05 | 0.00 | 0.30 | 99 | 1010.2 |
| 20260506150501 | 43 | 293 | 2.0 | 0.0 | 0.05 | 0.00 | 0.30 | 99 | 1010.2 |
| 20260506150002 | 43 | 270 | 2.0 | 0.0 | 0.05 | 0.00 | 0.28 | 99 | 1010.2 |
| 20260506145002 | 44 | 315 | 1.0 | 0.0 | 0.06 | 0.00 | 0.28 | 99 | 1010.2 |
| 20260506144502 | 44 | 293 | 2.0 | 0.0 | 0.05 | 0.00 | 0.28 | 99 | 1010.2 |
| 20260506143502 | 44 | 225 | 0.0 | 0.0 | 0.05 | 0.00 | 0.27 | 99 | 1010.2 |
| 20260506143002 | 43 | 270 | 3.0 | 0.0 | 0.05 | 0.00 | 0.27 | 99 | 1010.2 |
| 20260506142501 | 44 | 270 | 1.0 | 0.0 | 0.04 | 0.00 | 0.26 | 99 | 1010.2 |
| 20260506141501 | 44 | 225 | 0.0 | 0.0 | 0.04 | 0.00 | 0.25 | 99 | 1010.2 |
| 20260506140502 | 44 | 225 | 1.0 | 0.0 | 0.04 | 0.00 | 0.24 | 99 | 1010.2 |
| 20260506140001 | 44 | 203 | 0.0 | 0.0 | 0.04 | 0.00 | 0.24 | 99 | 1010.2 |
| 20260506135502 | 44 | 180 | 2.0 | 0.0 | 0.03 | 0.00 | 0.23 | 99 | 1010.2 |
| 20260506135002 | 44 | 203 | 2.0 | 0.0 | 0.05 | 0.00 | 0.23 | 99 | 1010.2 |
| 20260506134502 | 44 | 203 | 1.0 | 0.0 | 0.04 | 0.00 | 0.22 | 99 | 1010.2 |
| 20260506134001 | 44 | 203 | 2.0 | 0.0 | 0.05 | 0.00 | 0.22 | 99 | 1010.2 |
| 20260506133001 | 44 | 203 | 0.0 | 0.0 | 0.07 | 0.00 | 0.22 | 99 | 1010.2 |
| 20260506132502 | 44 | 225 | 0.0 | 0.0 | 0.06 | 0.00 | 0.21 | 99 | 1010.2 |
| 20260506132001 | 44 | 180 | 0.0 | 0.0 | 0.07 | 0.00 | 0.21 | 99 | 1010.2 |
| 20260506131502 | 44 | 225 | 2.0 | 0.0 | 0.07 | 0.00 | 0.21 | 99 | 1010.2 |
| 20260506131002 | 44 | 248 | 2.0 | 0.0 | 0.07 | 0.00 | 0.20 | 99 | 1010.2 |
| 20260506130502 | 44 | 225 | 2.0 | 0.0 | 0.07 | 0.00 | 0.20 | 99 | 1010.2 |
| 20260506125502 | 44 | 158 | 2.0 | 0.0 | 0.08 | 0.00 | 0.19 | 99 | 1010.2 |
| 20260506125001 | 44 | 248 | 2.0 | 0.0 | 0.08 | 0.00 | 0.18 | 99 | 1010.2 |
| 20260506124502 | 44 | 225 | 1.0 | 0.0 | 0.08 | 0.00 | 0.18 | 99 | 1010.2 |
| 20260506123502 | 44 | 225 | 2.0 | 0.0 | 0.07 | 0.00 | 0.16 | 99 | 1010.2 |
| 20260506123001 | 44 | 180 | 1.0 | 0.0 | 0.08 | 0.00 | 0.15 | 99 | 1010.2 |
| 20260506122501 | 44 | 203 | 3.0 | 0.0 | 0.07 | 0.00 | 0.14 | 99 | 1010.2 |
| 20260506122006 | 44 | 203 | 0.0 | 0.0 | 0.08 | 0.00 | 0.14 | 98 | 1010.2 |
| 20260506121501 | 44 | 225 | 2.0 | 0.0 | 0.07 | 0.00 | 0.13 | 99 | 1009.8 |
| 20260506121002 | 44 | 203 | 0.0 | 0.0 | 0.08 | 0.00 | 0.13 | 98 | 1010.2 |
| 20260506120502 | 45 | 248 | 0.0 | 0.0 | 0.07 | 0.00 | 0.12 | 99 | 1010.2 |
| 20260506120002 | 45 | 225 | 1.0 | 0.0 | 0.07 | 0.00 | 0.11 | 99 | 1010.2 |
| 20260506115502 | 45 | 225 | 3.0 | 0.0 | 0.07 | 0.00 | 0.11 | 99 | 1010.5 |
| 20260506115001 | 45 | 270 | 1.0 | 0.0 | 0.07 | 0.00 | 0.10 | 99 | 1010.5 |
| 20260506114502 | 45 | 225 | 1.0 | 0.0 | 0.06 | 0.00 | 0.09 | 99 | 1010.5 |
| 20260506114002 | 45 | 248 | 1.0 | 0.0 | 0.06 | 0.00 | 0.09 | 99 | 1010.5 |
| 20260506113001 | 45 | 203 | 2.0 | 0.0 | 0.05 | 0.00 | 0.07 | 99 | 1010.5 |
| 20260506112502 | 45 | 180 | 2.0 | 0.0 | 0.05 | 0.00 | 0.07 | 99 | 1010.5 |
| 20260506112001 | 45 | 203 | 1.0 | 0.0 | 0.06 | 0.00 | 0.06 | 99 | 1010.5 |
| 20260506111501 | 45 | 180 | 2.0 | 0.0 | 0.05 | 0.00 | 0.05 | 99 | 1010.5 |
| 20260506111002 | 45 | 203 | 2.0 | 0.0 | 0.05 | 0.00 | 0.05 | 99 | 1010.5 |
| 20260506110002 | 45 | 225 | 0.0 | 0.0 | 0.04 | 0.00 | 0.04 | 99 | 1010.2 |
| 20260506105502 | 45 | 180 | 2.0 | 0.0 | 0.04 | 0.00 | 0.04 | 99 | 1010.2 |
| 20260506104002 | 46 | 180 | 0.0 | 0.0 | 0.03 | 0.00 | 0.03 | 99 | 1009.8 |
| 20260506103502 | 46 | 158 | 2.0 | 0.0 | 0.02 | 0.00 | 0.02 | 99 | 1009.8 |
| 20260506103002 | 46 | 180 | 0.0 | 0.0 | 0.02 | 0.00 | 0.02 | 99 | 1009.8 |
| 20260506102501 | 46 | 158 | 1.0 | 0.0 | 0.01 | 0.00 | 0.01 | 98 | 1009.5 |
| 20260506102001 | 46 | 135 | 0.0 | 0.0 | 0.00 | 0.00 | 0.00 | 95 | 1009.8 |
| 20260506101502 | 46 | 158 | 3.0 | 0.0 | 0.00 | 0.00 | 0.00 | 95 | 1009.8 |
| 20260506101002 | 46 | 135 | 2.0 | 0.0 | 0.00 | 0.00 | 0.00 | 93 | 1009.8 |
| 20260506100501 | 46 | 158 | 1.0 | 0.0 | 0.00 | 0.00 | 0.00 | 92 | 1009.8 |
| 20260506100001 | 47 | 203 | 3.0 | 0.0 | 0.00 | 0.00 | 0.00 | 91 | 1009.8 |
| 20260506095002 | 47 | 203 | 1.0 | 0.0 | 0.00 | 0.00 | 0.00 | 89 | 1009.8 |
| 20260506092001 | 48 | 203 | 2.0 | 0.0 | 0.00 | 0.00 | 0.00 | 88 | 1009.5 |
| 20260506083502 | 48 | 180 | 3.0 | 0.0 | 0.00 | 0.00 | 0.00 | 86 | 1009.1 |
| 20260506082002 | 48 | 203 | 2.0 | 0.0 | 0.00 | 0.00 | 0.00 | 86 | 1009.1 |
| 20260506081002 | 48 | 203 | 3.0 | 0.0 | 0.00 | 0.00 | 0.00 | 85 | 1008.8 |
| 20260506072502 | 49 | 203 | 3.0 | 0.0 | 0.00 | 0.00 | 0.00 | 87 | 1009.1 |
| 20260506071502 | 49 | 180 | 2.0 | 0.0 | 0.00 | 0.00 | 0.00 | 87 | 1009.1 |
| 20260506062002 | 49 | 225 | 4.0 | 0.0 | 0.00 | 0.00 | 0.00 | 85 | 1008.8 |
| 20260506051002 | 50 | 180 | 7.0 | 0.0 | 0.00 | 0.00 | 0.00 | 89 | 1008.8 |
| 20260506043002 | 51 | 225 | 2.0 | 0.0 | 0.00 | 0.00 | 0.00 | 92 | 1008.1 |
| 20260506041501 | 51 | 180 | 3.0 | 0.0 | 0.00 | 0.00 | 0.00 | 92 | 1007.8 |
| 20260506040001 | 51 | 203 | 4.0 | 0.0 | 0.00 | 0.00 | 0.00 | 90 | 1007.5 |
| 20260506035506 | 51 | 203 | 3.0 | 0.0 | 0.00 | 0.00 | 0.04 | 90 | 1007.8 |
| 20260506034007 | 52 | 203 | 4.0 | 0.0 | 0.00 | 0.00 | 0.04 | 89 | 1007.5 |
| 20260506032502 | 52 | 203 | 6.0 | 0.0 | 0.00 | 0.00 | 0.04 | 86 | 1007.1 |
| 20260506031002 | 52 | 180 | 2.0 | 0.0 | 0.00 | 0.00 | 0.04 | 87 | 1007.1 |
| 20260506025502 | 53 | 225 | 7.0 | 0.0 | 0.00 | 0.00 | 0.04 | 84 | 1006.8 |
| 20260506022501 | 54 | 203 | 4.0 | 0.0 | 0.00 | 0.00 | 0.04 | 85 | 1006.8 |